RADFXSAT (FOX-1B) (43017 NORAD) Tracking and Keplerian Element Data

This shows tracking and keplerian element data for the satellite.

Feedback or suggestion? Click here.




ElementValue
Catalog43017
NameRADFXSAT (FOX-1B)
Epoch Orbit17129
Epoch Day20.82076642
Epoch Year2021
RAAN290.5971
Inclination97.717
Eccentricity0.0257179
Argument of Perigee62.0526
Mean Anonmoly300.6464
Mean Motion14.79262941
Decay Rate7.61E-06
L11 43017U 17073E 21020.82076642 .00000761 00000-0 63457-4 0 9996
L22 43017 97.7170 290.5971 0257179 62.0526 300.6464 14.79262941171291

Live tracking and technical data element details for RADFXSAT (FOX-1B) (NORAD 43017). RADFXSAT (FOX-1B) can be tracked NOW for your location showing map with azimuth and elevation plus other details from your city location.

Track the satellite on the map from your city or location and see movement details for azimuth, elevation, latitude, longitude, range, height, and movement on the map or in text.







IsCatalogInMostPopularTable: catalog: 43017, numindb: 861
Update: records affected: 1



GetName: 43017 RADFXSAT (FOX-1B)

Hit Count: updated at: Sat, 23 Jan 2021 04:38:28 GMT